This demonstration page uses our WeatherBlox Daily Observations layout. Learn more.

Hourly Observations for December 29, 2016

Temp ( °F °C ) Dew Point ( °F °C ) Humidity (%) Winds ( mph kmh ) Pressure ( in mb ) Visibility ( mi km ) Precip ( " mm )
12:54 am 00:54 Clear 36 2.2 18 -7.8 48 48 W 16 26 30.2 1023 10 16.0934 0 0
1:54 am 01:54 Clear 36 2.2 18 -7.8 48 48 WNW 21 33 30.22 1023 10 16.0934 0 0
2:54 am 02:54 Clear 36 2.2 18 -7.8 48 48 WNW 20 31 30.24 1024 10 16.0934 0 0
3:54 am 03:54 Clear 35 1.7 18 -7.8 50 50 WNW 20 31 30.25 1024 10 16.0934 0 0
4:54 am 04:54 Clear 34 1.1 17 -8.3 50 50 W 17 28 30.26 1025 10 16.0934 0 0
5:54 am 05:54 Clear 34 1.1 17 -8.3 50 50 WNW 18 30 30.29 1026 10 16.0934 0 0
6:54 am 06:54 Clear 34 1.1 16 -8.9 48 48 WNW 21 33 30.31 1026 10 16.0934 0 0
7:54 am 07:54 Sunny 33 0.6 17 -8.3 52 52 W 17 28 30.33 1027 10 16.0934 0 0
8:54 am 08:54 Sunny 34 1.1 17 -8.3 50 50 WNW 15 24 30.36 1028 10 16.0934 0 0
9:54 am 09:54 Sunny 37 2.8 16 -8.9 42 42 WNW 18 30 30.37 1029 10 16.0934 0 0
10:54 am 10:54 Sunny 42 5.6 15 -9.4 33 33 NW 21 33 30.39 1029 10 16.0934 0 0
11:54 am 11:54 Sunny 43 6.1 15 -9.4 32 32 NW 22 35 30.4 1029 10 16.0934 0 0
12:54 pm 12:54 Sunny 44 6.7 14 -10 30 30 WNW 23 37 30.37 1029 10 16.0934 0 0
1:54 pm 13:54 Sunny 45 7.2 13 -10.6 27 27 WNW 24 39 30.36 1028 10 16.0934 0 0
2:54 pm 14:54 Sunny 46 7.8 13 -10.6 26 26 NW 15 24 30.36 1028 10 16.0934 0 0
3:54 pm 15:54 Sunny 46 7.8 11 -11.7 24 24 WNW 14 22 30.36 1028 10 16.0934 0 0
4:54 pm 16:54 Sunny 43 6.1 12 -11.1 28 28 WNW 10 17 30.37 1028 10 16.0934 0 0
5:54 pm 17:54 Clear 39 3.9 13 -10.6 34 34 W 8 13 30.37 1029 10 16.0934 0 0
6:54 pm 18:54 Clear 37 2.8 14 -10 39 39 WNW 10 17 30.37 1029 10 16.0934 0 0
7:54 pm 19:54 Clear 34 1.1 15 -9.4 46 46 NW 6 9 30.38 1029 10 16.0934 0 0
8:54 pm 20:54 Clear 25 -3.9 14 -10 63 63 Calm 30.4 1030 10 16.0934 0 0
9:54 pm 21:54 Clear 25 -3.9 15 -9.4 66 66 Calm 30.39 1029 10 16.0934 0 0
10:54 pm 22:54 Clear 28 -2.2 15 -9.4 58 58 W 5 7 30.38 1029 10 16.0934 0 0
11:54 pm 23:54 Clear 24 -4.4 15 -9.4 68 68 Calm 30.35 1028 10 16.0934 0 0

Powered by AerisWeather